Weather in Korotchayevo

Russia / Yamalo-Nenets Autonomous Okrug     65°55′36″N   78°11′01″E
temp.,
°C
wind,
m/s
gust,
m/s
humid.,
%
clouds,
%
prec.,
mm/h
press.,
hPa
HPBL,
m
27 february, sat
sat2723:00−28wsw229894 0.1 102319
02:00−28wsw119992 0.1 102219
05:00−29wsw1110094 0.1 102319
08:00−29nnw009995 0.1 102319
11:00−27nne119494 0.1 1023148
14:00−26ne119198 0.0 1024212
17:00−31ene229873 0.0 102519
20:00−33ese229765 0.0 102619
28 february, sun
sun2823:00−34se229962 0.0 102619
02:00−34se239818 0.0 102619
05:00−34sse239821 0.0 102719
08:00−34sse349730 0.0 102737
11:00−29sse459517 0.0 1027220
14:00−27sse459426 0.0 1028244
17:00−31sse449619 0.0 102843
20:00−31sse459734 0.0 102762
1 march, mon
mon123:00−32sse459751 0.0 102767
02:00−31sse449876 0.0 102668
05:00−31sse449886 0.0 102666
08:00−31sse469786 0.0 1025115
11:00−26s579593 0.0 1024248
14:00−24s5794100 0.0 1022300
17:00−26s5896100 0.0 1022143
20:00−27s51097100 0.0 1021145
2 march, tue
tue223:00−28s5109697 0.0 1020170
02:00−28s5109688 0.0 1019156
05:00−28s5109562 0.0 1019153
08:00−27s6119495 0.0 1018241
11:00−23s7129197 0.0 1019340
14:00−22s71191100 0.0 1018378
17:00−23sse71290100 0.0 1018313
20:00−24s7149082 0.0 1017265
3 march, wed
wed323:00−24s6138990 0.0 1017273
02:00−24s61288100 0.0 1017278
05:00−25s71391100 0.0 1017268
08:00−25sse71393100 0.0 1017291
11:00−23s71291100 0.0 1017378
14:00−22s81290100 0.0 1017412
17:00−23sse71393100 0.0 1016325
20:00−22sse71592100 0.0 1016335